Peru, IN

1:29 AM EDT on July 21, 2017 (GMT -0400)
Grissom Air Reserve Base

Weather History for KGUS - February, 2014

Change the Weather History Date:

Saturday, February 1, 2014

  Actual Average Record
Temperature  
Mean Temperature 32 °F -  
Max Temperature 36 °F 32 °F 53 °F (2012)
Min Temperature 28 °F 20 °F 3 °F (2013)
Degree Days  
Heating Degree Days 33    
Moisture  
Dew Point 31 °F    
Average Humidity 100    
Maximum Humidity 100    
Minimum Humidity 100    
Precipitation  
Precipitation 1.12 in - - ()
Snow  
Snow 0.00 in - - ()
Snow Depth 5.00 in    
Sea Level Pressure  
Sea Level Pressure 29.95 in    
Wind  
Wind Speed 8 mph (East)    
Max Wind Speed 12 mph    
Max Gust Speed -    
Visibility 4 miles    
Events Fog , Rain , Snow    
Averages and records for this station are not official NWS values.
T = Trace of Precipitation, MM = Missing Value Source: NWS Daily Summary

Daily Weather History Graph

Daily Weather History Graph

Search for Another Location

Airport or City:

Trip Planner

Search our weather history database for the weather conditions in past years. The results will help you decide how hot, cold, wet, or windy it might be!

Date:

Astronomy

Feb. 01, 2014 Rise Set
Actual Time 7:54 AM EST 6:02 PM EST
Civil Twilight 7:25 AM EST 6:31 PM EST
Nautical Twilight 6:52 AM EST 7:04 PM EST
Astronomical Twilight 6:20 AM EST 7:36 PM EST
Moon 8:42 AM EST (2/1) 8:38 PM EST (2/1)
Length of Visible Light 11h 05m
Length of Day
10h 08m
Waxing Crescent, 5% of the Moon is Illuminated
Feb 1
Waxing Crescent
Feb 6
First Quarter
Feb 14
Full
Feb 22
Last Quarter
Mar 1
New

Hourly Weather History & Observations

Time (EST) Temp. Windchill Dew Point Humidity Pressure Visibility Wind Dir Wind Speed Gust Speed Precip Events Conditions
12:07 AM 28.4 °F 22.2 °F 28.4 °F 100% 30.04 in 5.0 mi ENE 5.8 mph - N/A   Clear
12:12 AM 28.4 °F 23.3 °F 28.4 °F 100% 30.04 in 5.0 mi ENE 4.6 mph - N/A   Clear
12:58 AM 28.0 °F 21.7 °F 28.0 °F 100% 30.08 in 6.0 mi ESE 5.8 mph - 0.00 in   Partly Cloudy
1:58 AM 28.2 °F 21.0 °F 28.2 °F 100% 30.07 in 6.0 mi ESE 6.9 mph - N/A   Mostly Cloudy
2:08 AM 28.4 °F 22.2 °F 28.4 °F 100% 30.04 in 6.0 mi ESE 5.8 mph - N/A   Overcast
2:23 AM 28.4 °F 21.2 °F 28.4 °F 100% 30.02 in 6.0 mi ESE 6.9 mph - N/A   Overcast
2:53 AM 28.4 °F 21.2 °F 28.4 °F 100% 30.01 in 6.0 mi ESE 6.9 mph - N/A   Overcast
2:58 AM 28.9 °F 22.8 °F 28.9 °F 100% 30.05 in 6.0 mi ESE 5.8 mph - N/A   Overcast
3:03 AM 28.4 °F 22.2 °F 28.4 °F 100% 30.02 in 6.0 mi ESE 5.8 mph - N/A   Overcast
3:31 AM 28.4 °F 22.2 °F 28.4 °F 100% 30.01 in 6.0 mi ESE 5.8 mph - N/A   Overcast
3:36 AM 28.4 °F 22.2 °F 28.4 °F 100% 30.01 in 5.0 mi East 5.8 mph - N/A Snow Light Snow
3:41 AM 28.4 °F 22.2 °F 28.4 °F 100% 30.00 in 4.0 mi East 5.8 mph - N/A Snow Light Snow
3:46 AM 28.4 °F 22.2 °F 28.4 °F 100% 30.00 in 5.0 mi East 5.8 mph - N/A   Overcast
3:47 AM 28.4 °F 21.2 °F 28.4 °F 100% 30.00 in 5.0 mi East 6.9 mph - N/A Rain Light Freezing Rain
3:52 AM 28.4 °F 21.2 °F 28.4 °F 100% 29.99 in 5.0 mi East 6.9 mph - N/A Rain Light Freezing Rain
3:58 AM 29.3 °F 22.3 °F 29.3 °F 100% 30.03 in 5.0 mi East 6.9 mph - 0.00 in Rain Light Freezing Rain
4:13 AM 30.2 °F 23.4 °F 30.2 °F 100% 29.99 in 6.0 mi East 6.9 mph - N/A Rain Light Freezing Rain
4:15 AM 30.2 °F 23.4 °F 30.2 °F 100% 29.99 in 6.0 mi East 6.9 mph - N/A Rain Light Freezing Rain
4:16 AM 30.2 °F 23.4 °F 30.2 °F 100% 29.99 in 6.0 mi East 6.9 mph - N/A   Overcast
4:21 AM 30.2 °F 22.6 °F 30.2 °F 100% 29.99 in 6.0 mi ESE 8.1 mph - N/A   Overcast
4:26 AM 30.2 °F 22.6 °F 30.2 °F 100% 29.98 in 6.0 mi East 8.1 mph - N/A   Overcast
4:31 AM 30.2 °F 22.6 °F 30.2 °F 100% 29.98 in 5.0 mi ESE 8.1 mph - N/A   Overcast
4:36 AM 30.2 °F 22.6 °F 30.2 °F 100% 29.98 in 5.0 mi ESE 8.1 mph - N/A   Overcast
4:41 AM 30.2 °F 22.6 °F 30.2 °F 100% 29.97 in 4.0 mi ESE 8.1 mph - N/A   Overcast
4:46 AM 30.2 °F 22.6 °F 30.2 °F 100% 29.97 in 4.0 mi East 8.1 mph - N/A   Overcast
4:51 AM 30.2 °F 22.6 °F 30.2 °F 100% 29.97 in 4.0 mi East 8.1 mph - N/A   Overcast
4:58 AM 29.7 °F 21.3 °F 29.7 °F 100% 30.01 in 3.0 mi East 9.2 mph - 0.00 in   Overcast
5:01 AM 30.2 °F 22.6 °F 30.2 °F 100% 29.97 in 3.0 mi East 8.1 mph - N/A   Overcast
5:16 AM 30.2 °F 22.6 °F 30.2 °F 100% 29.96 in 3.0 mi East 8.1 mph - N/A   Overcast
5:18 AM 30.2 °F 21.9 °F 30.2 °F 100% 29.96 in 3.0 mi East 9.2 mph - N/A   Overcast
5:22 AM 30.2 °F 21.9 °F 30.2 °F 100% 29.96 in 3.0 mi East 9.2 mph - N/A   Light Freezing Drizzle
5:27 AM 30.2 °F 21.9 °F 30.2 °F 100% 29.96 in 2.5 mi East 9.2 mph - N/A   Light Freezing Drizzle
5:42 AM 30.2 °F 21.9 °F 30.2 °F 100% 29.94 in 2.5 mi ESE 9.2 mph - N/A   Light Freezing Drizzle
5:58 AM 30.2 °F 21.3 °F 30.2 °F 100% 29.98 in 2.5 mi ESE 10.4 mph - 0.00 in   Light Freezing Drizzle
6:08 AM 32.0 °F 23.0 °F 32.0 °F 100% 29.93 in 2.0 mi ESE 11.5 mph - N/A   Light Freezing Drizzle
6:18 AM 32.0 °F 23.0 °F 32.0 °F 100% 29.93 in 2.0 mi ESE 11.5 mph - N/A Rain Light Freezing Rain
6:28 AM 32.0 °F 23.0 °F 32.0 °F 100% 29.93 in 2.5 mi ESE 11.5 mph - N/A Rain Light Freezing Rain
6:38 AM 32.0 °F 23.6 °F 32.0 °F 100% 29.93 in 2.0 mi SE 10.4 mph - N/A Rain Light Freezing Rain
6:43 AM 32.0 °F 24.2 °F 32.0 °F 100% 29.92 in 2.0 mi ESE 9.2 mph - N/A Rain Light Freezing Rain
6:48 AM 32.0 °F 24.2 °F 32.0 °F 100% 29.93 in 2.0 mi ESE 9.2 mph - N/A Rain Light Freezing Rain
6:53 AM 32.0 °F 24.8 °F 32.0 °F 100% 29.92 in 2.5 mi ESE 8.1 mph - N/A Rain Light Freezing Rain
6:58 AM 32.0 °F 24.8 °F 32.0 °F 100% 29.96 in 3.0 mi ESE 8.1 mph - 0.02 in Rain Light Freezing Rain
7:03 AM 32.0 °F 24.8 °F 32.0 °F 100% 29.92 in 3.0 mi ESE 8.1 mph - N/A Rain Light Freezing Rain
7:55 AM 32.4 °F 26.0 °F 32.4 °F 100% 29.92 in 3.0 mi SE 6.9 mph - 0.06 in Rain Light Freezing Rain
8:58 AM 32.7 °F 27.3 °F 32.7 °F 100% 29.91 in 1.8 mi ESE 5.8 mph - 0.03 in Rain Light Rain
9:58 AM 33.3 °F - 33.3 °F 100% 29.94 in 2.0 mi ESE 1.2 mph - 0.15 in Rain Rain
10:29 AM 32.0 °F 24.2 °F 32.0 °F 100% 29.87 in 2.0 mi ESE 9.2 mph - N/A Rain Light Rain
10:58 AM 33.1 °F 26.1 °F 33.1 °F 100% 29.90 in 2.0 mi SE 8.1 mph - 0.10 in Rain Light Rain
11:36 AM 33.8 °F 25.3 °F 33.8 °F 100% 29.83 in 4.0 mi SSE 11.5 mph - N/A Rain Light Rain
11:58 AM 34.0 °F 26.0 °F 34.0 °F 100% 29.86 in 3.0 mi South 10.4 mph - 0.11 in Rain Light Rain
12:58 PM 35.2 °F 27.1 °F 35.2 °F 100% 29.83 in 3.0 mi South 11.5 mph - 0.07 in Rain Light Rain
1:58 PM 35.8 °F 27.8 °F 35.8 °F 100% 29.79 in 3.0 mi SSW 11.5 mph - 0.17 in Rain Light Rain
2:57 PM 36.5 °F 29.2 °F 36.5 °F 100% 29.80 in 4.0 mi SSW 10.4 mph - 0.08 in Rain Light Rain
3:46 PM 35.6 °F 28.0 °F 35.6 °F 100% 29.79 in 1.5 mi SW 10.4 mph - N/A Rain Light Rain
3:58 PM 36.1 °F 29.3 °F 36.1 °F 100% 29.82 in 1.5 mi WSW 9.2 mph - 0.03 in Rain Light Rain
4:47 PM 35.6 °F 29.9 °F 35.6 °F 100% 29.80 in 0.5 mi WSW 6.9 mph - N/A Fog , Rain Light Rain
4:58 PM 35.6 °F 29.9 °F 35.6 °F 100% 29.84 in 0.2 mi WSW 6.9 mph - 0.08 in Fog , Rain Light Rain
5:35 PM 35.6 °F 29.2 °F 35.6 °F 100% 29.82 in 0.2 mi West 8.1 mph - N/A Fog , Rain Light Rain
5:55 PM 35.6 °F 29.2 °F 35.6 °F 100% 29.84 in 0.5 mi West 8.1 mph - N/A Fog , Rain Light Rain
5:58 PM 34.9 °F 27.7 °F 34.9 °F 100% 29.87 in 1.2 mi West 9.2 mph - 0.06 in Rain Light Rain
6:02 PM 35.6 °F 28.0 °F 35.6 °F 100% 29.84 in 1.2 mi West 10.4 mph - N/A Fog , Rain Light Rain
6:36 PM 33.8 °F 27.0 °F 33.8 °F 100% 29.85 in 4.0 mi NW 8.1 mph - N/A Rain Rain
6:43 PM 33.8 °F 25.8 °F 33.8 °F 100% 29.85 in 5.0 mi NW 10.4 mph - N/A Rain Light Rain
6:58 PM 34.2 °F 26.2 °F 34.2 °F 100% 29.91 in 6.0 mi NW 10.4 mph - 0.06 in Rain Light Rain
7:33 PM 32.0 °F 24.2 °F 32.0 °F 100% 29.90 in 5.0 mi NW 9.2 mph - N/A Snow Light Snow
7:58 PM 32.4 °F 26.0 °F 32.4 °F 100% 29.94 in 3.0 mi NW 6.9 mph - 0.04 in Snow Light Snow
8:36 PM 32.0 °F 23.6 °F 32.0 °F 100% 29.92 in 1.5 mi NNW 10.4 mph - N/A Snow Light Snow
8:58 PM 31.6 °F 25.1 °F 31.6 °F 100% 29.97 in 3.0 mi NNW 6.9 mph - 0.02 in Rain Light Freezing Rain
9:17 PM 32.0 °F 23.6 °F 32.0 °F 100% 29.94 in 4.0 mi NNW 10.4 mph - N/A Snow Light Snow
9:58 PM 31.1 °F 23.7 °F 31.1 °F 100% 29.99 in 3.0 mi NNW 8.1 mph - 0.01 in Snow Light Snow
10:58 PM 30.6 °F 22.4 °F 30.6 °F 100% 30.01 in 5.0 mi NNW 9.2 mph - 0.02 in Snow Light Snow
10:59 PM 32.0 °F 24.2 °F 32.0 °F 100% 29.97 in 5.0 mi NNW 9.2 mph - N/A Snow Light Snow
11:00 PM 32.0 °F 24.2 °F 32.0 °F 100% 29.98 in 7.0 mi NNW 9.2 mph - N/A Rain Light Freezing Rain
11:06 PM 32.0 °F 24.2 °F 32.0 °F 100% 29.97 in 7.0 mi NNW 9.2 mph - N/A Snow Light Snow
11:46 PM 30.2 °F 20.8 °F 30.2 °F 100% 29.99 in 9.0 mi NNW 11.5 mph - N/A Snow Light Snow
11:52 PM 30.2 °F 20.8 °F 30.2 °F 100% 29.98 in 9.0 mi NNW 11.5 mph - N/A Rain Light Freezing Rain
11:57 PM 30.2 °F 20.8 °F 30.2 °F 100% 29.99 in 10.0 mi NNW 11.5 mph - N/A Rain Light Freezing Rain
11:58 PM 29.5 °F 20.4 °F 29.5 °F 100% 30.03 in 10.0 mi NNW 10.4 mph - 0.01 in Rain Light Freezing Rain